Wetterdaten: Donnerstag, 27.11.2014
Datum Zeit Temperatur Luftfeuchte Luftdruck Regen Wind Richtung Richtung Taupunkt Windchill Windben
27.11.2014 00:00 2,8 C 98 % 1013,6 hPa 0,0 l/m 0,0 km/h (0 Bft) SO 135 2,5 C 7,8 C 0,0 km/h (0 Bft)
27.11.2014 00:05 2,8 C 98 % 1013,6 hPa 0,0 l/m 0,0 km/h (0 Bft) SO 135 2,5 C 7,8 C 0,0 km/h (0 Bft)
27.11.2014 00:10 2,8 C 98 % 1013,6 hPa 0,0 l/m 0,0 km/h (0 Bft) SO 135 2,5 C 7,8 C 0,0 km/h (0 Bft)
27.11.2014 00:15 2,7 C 98 % 1013,6 hPa 0,0 l/m 0,0 km/h (0 Bft) SO 135 2,4 C 7,8 C 0,0 km/h (0 Bft)
27.11.2014 00:20 2,8 C 98 % 1013,2 hPa 0,0 l/m 0,0 km/h (0 Bft) SO 135 2,5 C 7,8 C 0,0 km/h (0 Bft)
27.11.2014 00:25 2,8 C 98 % 1013,2 hPa 0,0 l/m 0,0 km/h (0 Bft) SO 135 2,5 C 7,8 C 0,0 km/h (0 Bft)
27.11.2014 00:30 2,8 C 98 % 1013,2 hPa 0,0 l/m 0,0 km/h (0 Bft) SO 135 2,5 C 7,8 C 0,0 km/h (0 Bft)
27.11.2014 00:35 2,8 C 98 % 1013,2 hPa 0,0 l/m 0,0 km/h (0 Bft) SO 135 2,5 C 7,8 C 0,0 km/h (0 Bft)
27.11.2014 00:40 2,8 C 98 % 1013,2 hPa 0,0 l/m 0,0 km/h (0 Bft) SO 135 2,5 C 7,8 C 0,0 km/h (0 Bft)
27.11.2014 00:45 2,8 C 98 % 1013,2 hPa 0,0 l/m 0,0 km/h (0 Bft) SO 135 2,5 C 7,8 C 0,0 km/h (0 Bft)
27.11.2014 00:50 2,8 C 98 % 1013,2 hPa 0,0 l/m 0,0 km/h (0 Bft) SO 135 2,5 C 7,8 C 0,0 km/h (0 Bft)
27.11.2014 00:55 2,8 C 98 % 1013,2 hPa 0,0 l/m 0,0 km/h (0 Bft) SO 135 2,5 C 7,8 C 0,0 km/h (0 Bft)
27.11.2014 01:00 2,8 C 98 % 1013,4 hPa 0,0 l/m 0,0 km/h (0 Bft) SO 135 2,5 C 7,8 C 0,0 km/h (0 Bft)
27.11.2014 01:05 2,8 C 98 % 1013,4 hPa 0,0 l/m 0,0 km/h (0 Bft) SO 135 2,5 C 7,8 C 0,0 km/h (0 Bft)
27.11.2014 01:10 2,8 C 98 % 1013,4 hPa 0,0 l/m 0,0 km/h (0 Bft) SO 135 2,5 C 7,8 C 0,0 km/h (0 Bft)
27.11.2014 01:15 2,8 C 98 % 1013,4 hPa 0,0 l/m 0,0 km/h (0 Bft) SO 135 2,5 C 7,8 C 0,0 km/h (0 Bft)
27.11.2014 01:20 2,8 C 98 % 1013,3 hPa 0,0 l/m 0,0 km/h (0 Bft) SO 135 2,5 C 7,8 C 0,0 km/h (0 Bft)
27.11.2014 01:25 2,8 C 98 % 1013,3 hPa 0,0 l/m 0,0 km/h (0 Bft) SO 135 2,5 C 7,8 C 0,0 km/h (0 Bft)
27.11.2014 01:30 2,8 C 98 % 1013,3 hPa 0,0 l/m 0,0 km/h (0 Bft) SO 135 2,5 C 7,8 C 0,0 km/h (0 Bft)
27.11.2014 01:35 2,7 C 98 % 1013,3 hPa 0,0 l/m 0,0 km/h (0 Bft) SO 135 2,4 C 7,8 C 0,0 km/h (0 Bft)
27.11.2014 01:40 2,7 C 98 % 1013,2 hPa 0,0 l/m 0,0 km/h (0 Bft) SO 135 2,4 C 7,8 C 0,0 km/h (0 Bft)
27.11.2014 01:45 2,7 C 98 % 1013,2 hPa 0,0 l/m 0,0 km/h (0 Bft) SO 135 2,4 C 7,8 C 0,0 km/h (0 Bft)
27.11.2014 01:50 2,7 C 98 % 1013,2 hPa 0,0 l/m 0,0 km/h (0 Bft) SO 135 2,4 C 7,8 C 0,0 km/h (0 Bft)
27.11.2014 01:55 2,7 C 98 % 1013,2 hPa 0,0 l/m 0,0 km/h (0 Bft) SO 135 2,4 C 7,8 C 0,0 km/h (0 Bft)
27.11.2014 02:00 2,7 C 98 % 1013,2 hPa 0,0 l/m 0,0 km/h (0 Bft) SO 135 2,4 C 7,8 C 0,0 km/h (0 Bft)
27.11.2014 02:05 2,7 C 98 % 1013,2 hPa 0,0 l/m 0,0 km/h (0 Bft) SO 135 2,4 C 7,8 C 0,0 km/h (0 Bft)
27.11.2014 02:10 2,7 C 98 % 1013,2 hPa 0,0 l/m 0,0 km/h (0 Bft) SO 135 2,4 C 7,8 C 0,0 km/h (0 Bft)
27.11.2014 02:15 2,7 C 98 % 1013,2 hPa 0,0 l/m 0,0 km/h (0 Bft) SO 135 2,4 C 7,8 C 0,0 km/h (0 Bft)
27.11.2014 02:20 2,7 C 98 % 1013,1 hPa 0,0 l/m 0,0 km/h (0 Bft) SO 135 2,4 C 7,8 C 0,0 km/h (0 Bft)
27.11.2014 02:25 2,8 C 98 % 1013,1 hPa 0,0 l/m 0,0 km/h (0 Bft) SO 135 2,5 C 7,8 C 0,0 km/h (0 Bft)
27.11.2014 02:30 2,8 C 98 % 1013,1 hPa 0,0 l/m 0,0 km/h (0 Bft) SO 135 2,5 C 7,8 C 0,0 km/h (0 Bft)
27.11.2014 02:35 2,7 C 98 % 1013,1 hPa 0,0 l/m 0,0 km/h (0 Bft) SO 135 2,4 C 7,8 C 0,0 km/h (0 Bft)
27.11.2014 02:40 2,7 C 98 % 1013,1 hPa 0,0 l/m 0,0 km/h (0 Bft) SO 135 2,4 C 7,8 C 0,0 km/h (0 Bft)
27.11.2014 02:45 2,7 C 98 % 1013,1 hPa 0,0 l/m 0,0 km/h (0 Bft) SO 135 2,4 C 7,8 C 0,0 km/h (0 Bft)
27.11.2014 02:48 2,7 C 98 % 1013,1 hPa 0,0 l/m 0,0 km/h (0 Bft) SO 135 2,4 C 7,8 C 0,0 km/h (0 Bft)
27.11.2014 02:50 2,7 C 98 % 1013,1 hPa 0,0 l/m 0,0 km/h (0 Bft) SO 135 2,4 C 7,8 C 0,0 km/h (0 Bft)
27.11.2014 02:55 2,7 C 98 % 1013,1 hPa 0,0 l/m 0,0 km/h (0 Bft) SO 135 2,4 C 7,8 C 0,0 km/h (0 Bft)
27.11.2014 03:00 2,7 C 98 % 1012,8 hPa 0,0 l/m 0,0 km/h (0 Bft) SO 135 2,4 C 7,8 C 0,0 km/h (0 Bft)
27.11.2014 03:05 2,6 C 98 % 1012,8 hPa 0,0 l/m 0,0 km/h (0 Bft) SO 135 2,3 C 7,8 C 0,0 km/h (0 Bft)
27.11.2014 03:10 2,6 C 98 % 1012,8 hPa 0,0 l/m 0,0 km/h (0 Bft) SO 135 2,3 C 7,8 C 0,0 km/h (0 Bft)
27.11.2014 03:15 2,6 C 98 % 1012,8 hPa 0,0 l/m 0,0 km/h (0 Bft) SO 135 2,3 C 7,8 C 0,0 km/h (0 Bft)
27.11.2014 03:20 2,6 C 98 % 1012,8 hPa 0,0 l/m 0,0 km/h (0 Bft) SO 135 2,3 C 7,8 C 0,0 km/h (0 Bft)
27.11.2014 03:25 2,5 C 98 % 1012,8 hPa 0,0 l/m 0,0 km/h (0 Bft) SO 135 2,2 C 7,8 C 0,0 km/h (0 Bft)
27.11.2014 03:30 2,5 C 98 % 1012,8 hPa 0,0 l/m 0,0 km/h (0 Bft) SO 135 2,2 C 7,8 C 0,0 km/h (0 Bft)
27.11.2014 03:35 2,4 C 98 % 1012,8 hPa 0,0 l/m 0,0 km/h (0 Bft) SO 135 2,1 C 7,8 C 0,0 km/h (0 Bft)
27.11.2014 03:40 2,4 C 98 % 1012,4 hPa 0,0 l/m 0,0 km/h (0 Bft) SO 135 2,1 C 7,8 C 0,0 km/h (0 Bft)
27.11.2014 03:45 2,3 C 98 % 1012,4 hPa 0,0 l/m 0,0 km/h (0 Bft) SO 135 2,0 C 7,8 C 0,0 km/h (0 Bft)
27.11.2014 03:50 2,3 C 98 % 1012,4 hPa 0,0 l/m 0,0 km/h (0 Bft) SO 135 2,0 C 7,8 C 0,0 km/h (0 Bft)
27.11.2014 03:55 2,2 C 98 % 1012,4 hPa 0,0 l/m 0,0 km/h (0 Bft) SO 135 1,9 C 7,8 C 0,0 km/h (0 Bft)
27.11.2014 04:00 2,1 C 98 % 1012,4 hPa 0,0 l/m 0,0 km/h (0 Bft) SO 135 1,8 C 7,8 C 0,0 km/h (0 Bft)
27.11.2014 04:05 2,0 C 98 % 1012,4 hPa 0,0 l/m 0,0 km/h (0 Bft) SO 135 1,7 C 7,8 C 0,0 km/h (0 Bft)
27.11.2014 04:10 2,0 C 98 % 1012,4 hPa 0,0 l/m 0,0 km/h (0 Bft) SO 135 1,7 C 7,8 C 0,0 km/h (0 Bft)
27.11.2014 04:15 2,0 C 98 % 1012,4 hPa 0,0 l/m 0,0 km/h (0 Bft) SO 135 1,7 C 7,8 C 0,0 km/h (0 Bft)
27.11.2014 04:20 2,0 C 98 % 1012,6 hPa 0,0 l/m 0,0 km/h (0 Bft) SO 135 1,7 C 7,8 C 0,0 km/h (0 Bft)
27.11.2014 04:25 2,0 C 98 % 1012,6 hPa 0,0 l/m 0,0 km/h (0 Bft) SO 135 1,7 C 7,8 C 0,0 km/h (0 Bft)
27.11.2014 04:30 2,0 C 98 % 1012,6 hPa 0,0 l/m 0,0 km/h (0 Bft) SO 135 1,7 C 7,8 C 0,0 km/h (0 Bft)
27.11.2014 04:35 2,0 C 98 % 1012,6 hPa 0,0 l/m 0,0 km/h (0 Bft) SO 135 1,7 C 7,8 C 0,0 km/h (0 Bft)
27.11.2014 04:40 1,9 C 98 % 1012,1 hPa 0,0 l/m 0,0 km/h (0 Bft) SO 135 1,6 C 7,8 C 0,0 km/h (0 Bft)
27.11.2014 04:45 1,8 C 98 % 1012,1 hPa 0,0 l/m 0,0 km/h (0 Bft) SO 135 1,5 C 7,8 C 0,0 km/h (0 Bft)
27.11.2014 04:50 1,8 C 98 % 1012,1 hPa 0,0 l/m 0,0 km/h (0 Bft) SO 135 1,5 C 7,8 C 0,0 km/h (0 Bft)
27.11.2014 04:55 1,8 C 98 % 1012,1 hPa 0,0 l/m 0,0 km/h (0 Bft) SO 135 1,5 C 7,8 C 0,0 km/h (0 Bft)
27.11.2014 05:00 1,8 C 98 % 1012,0 hPa 0,0 l/m 0,0 km/h (0 Bft) SO 135 1,5 C 7,8 C 0,0 km/h (0 Bft)
27.11.2014 05:05 1,8 C 98 % 1012,0 hPa 0,0 l/m 0,0 km/h (0 Bft) SO 135 1,5 C 7,8 C 0,0 km/h (0 Bft)
27.11.2014 05:10 1,7 C 98 % 1012,0 hPa 0,0 l/m 0,0 km/h (0 Bft) SO 135 1,4 C 7,8 C 0,0 km/h (0 Bft)
27.11.2014 05:15 1,6 C 98 % 1012,0 hPa 0,0 l/m 0,0 km/h (0 Bft) SO 135 1,3 C 7,8 C 0,0 km/h (0 Bft)
27.11.2014 05:20 1,5 C 98 % 1011,6 hPa 0,0 l/m 0,0 km/h (0 Bft) SO 135 1,2 C 7,8 C 0,0 km/h (0 Bft)
27.11.2014 05:25 1,4 C 98 % 1011,6 hPa 0,0 l/m 0,0 km/h (0 Bft) SO 135 1,1 C 7,8 C 0,0 km/h (0 Bft)
27.11.2014 05:30 1,4 C 98 % 1011,6 hPa 0,0 l/m 0,0 km/h (0 Bft) SO 135 1,1 C 7,8 C 0,0 km/h (0 Bft)
27.11.2014 05:35 1,4 C 98 % 1011,6 hPa 0,0 l/m 0,0 km/h (0 Bft) SO 135 1,1 C 7,8 C 0,0 km/h (0 Bft)
27.11.2014 05:40 1,4 C 98 % 1012,0 hPa 0,0 l/m 0,0 km/h (0 Bft) SO 135 1,1 C 7,8 C 0,0 km/h (0 Bft)
27.11.2014 05:45 1,2 C 98 % 1012,0 hPa 0,0 l/m 0,0 km/h (0 Bft) SO 135 0,9 C 7,8 C 0,0 km/h (0 Bft)
27.11.2014 05:48 1,1 C 98 % 1012,0 hPa 0,0 l/m 0,0 km/h (0 Bft) SO 135 0,8 C 7,8 C 0,0 km/h (0 Bft)
27.11.2014 05:50 1,1 C 98 % 1012,0 hPa 0,0 l/m 0,0 km/h (0 Bft) SO 135 0,8 C 7,8 C 0,0 km/h (0 Bft)
27.11.2014 05:55 1,0 C 98 % 1012,0 hPa 0,0 l/m 0,0 km/h (0 Bft) SO 135 0,7 C 7,8 C 0,0 km/h (0 Bft)
27.11.2014 06:00 1,0 C 98 % 1011,7 hPa 0,0 l/m 0,0 km/h (0 Bft) SO 135 0,7 C 7,8 C 0,0 km/h (0 Bft)
27.11.2014 06:05 1,0 C 98 % 1011,7 hPa 0,0 l/m 0,0 km/h (0 Bft) SO 135 0,7 C 7,8 C 0,0 km/h (0 Bft)
27.11.2014 06:10 0,9 C 98 % 1011,7 hPa 0,0 l/m 0,0 km/h (0 Bft) SO 135 0,6 C 7,8 C 0,0 km/h (0 Bft)
27.11.2014 06:15 0,7 C 98 % 1011,7 hPa 0,0 l/m 0,0 km/h (0 Bft) SO 135 0,4 C 7,8 C 0,0 km/h (0 Bft)
27.11.2014 06:20 0,5 C 98 % 1011,6 hPa 0,0 l/m 0,0 km/h (0 Bft) SO 135 0,2 C 7,8 C 0,0 km/h (0 Bft)
27.11.2014 06:25 0,4 C 98 % 1011,6 hPa 0,0 l/m 0,0 km/h (0 Bft) SO 135 0,1 C 7,8 C 0,0 km/h (0 Bft)
27.11.2014 06:30 0,3 C 98 % 1011,6 hPa 0,0 l/m 0,0 km/h (0 Bft) SO 135 0,0 C 7,8 C 0,0 km/h (0 Bft)
27.11.2014 06:35 0,4 C 98 % 1011,6 hPa 0,0 l/m 0,0 km/h (0 Bft) SO 135 0,1 C 7,8 C 0,0 km/h (0 Bft)
27.11.2014 06:40 0,5 C 98 % 1011,5 hPa 0,0 l/m 0,0 km/h (0 Bft) SO 135 0,2 C 7,8 C 0,0 km/h (0 Bft)
27.11.2014 06:45 0,3 C 98 % 1011,5 hPa 0,0 l/m 0,0 km/h (0 Bft) SO 135 0,0 C 7,8 C 0,0 km/h (0 Bft)
27.11.2014 06:50 0,3 C 98 % 1011,5 hPa 0,0 l/m 0,0 km/h (0 Bft) SO 135 0,0 C 7,8 C 0,0 km/h (0 Bft)
27.11.2014 06:55 0,1 C 98 % 1011,5 hPa 0,0 l/m 0,0 km/h (0 Bft) SO 135 -0,2 C 7,8 C 0,0 km/h (0 Bft)
27.11.2014 07:00 0,1 C 98 % 1011,4 hPa 0,0 l/m 0,0 km/h (0 Bft) SO 135 -0,2 C 7,8 C 0,0 km/h (0 Bft)
27.11.2014 07:05 0,2 C 98 % 1011,4 hPa 0,0 l/m 0,0 km/h (0 Bft) SO 135 -0,1 C 7,8 C 0,0 km/h (0 Bft)
27.11.2014 07:10 0,3 C 98 % 1011,4 hPa 0,0 l/m 0,0 km/h (0 Bft) SO 135 0,0 C 7,8 C 0,0 km/h (0 Bft)
27.11.2014 07:15 0,3 C 98 % 1011,4 hPa 0,0 l/m 0,0 km/h (0 Bft) SO 135 0,0 C 7,8 C 0,0 km/h (0 Bft)
27.11.2014 07:20 0,4 C 98 % 1011,4 hPa 0,0 l/m 0,0 km/h (0 Bft) SO 135 0,1 C 7,8 C 0,0 km/h (0 Bft)
27.11.2014 07:25 0,5 C 98 % 1011,4 hPa 0,0 l/m 0,0 km/h (0 Bft) SO 135 0,2 C 7,8 C 0,0 km/h (0 Bft)
27.11.2014 07:30 0,6 C 98 % 1011,4 hPa 0,0 l/m 0,0 km/h (0 Bft) SO 135 0,3 C 7,8 C 0,0 km/h (0 Bft)
27.11.2014 07:35 0,7 C 98 % 1011,4 hPa 0,0 l/m 0,0 km/h (0 Bft) SO 135 0,4 C 7,8 C 0,0 km/h (0 Bft)
27.11.2014 07:40 0,9 C 98 % 1011,2 hPa 0,0 l/m 0,0 km/h (0 Bft) SO 135 0,6 C 7,8 C 0,0 km/h (0 Bft)
27.11.2014 07:45 1,1 C 98 % 1011,2 hPa 0,0 l/m 0,0 km/h (0 Bft) SO 135 0,8 C 7,8 C 0,0 km/h (0 Bft)
27.11.2014 07:50 1,1 C 98 % 1011,2 hPa 0,0 l/m 0,0 km/h (0 Bft) SO 135 0,8 C 7,8 C 0,0 km/h (0 Bft)
27.11.2014 07:55 1,4 C 98 % 1011,2 hPa 0,0 l/m 0,0 km/h (0 Bft) SO 135 1,1 C 7,8 C 0,0 km/h (0 Bft)
27.11.2014 08:00 1,5 C 98 % 1011,4 hPa 0,0 l/m 0,0 km/h (0 Bft) SO 135 1,2 C 7,8 C 0,0 km/h (0 Bft)
27.11.2014 08:05 1,7 C 98 % 1011,4 hPa 0,0 l/m 0,0 km/h (0 Bft) SO 135 1,4 C 7,8 C 0,0 km/h (0 Bft)
27.11.2014 08:10 1,7 C 98 % 1011,4 hPa 0,0 l/m 0,0 km/h (0 Bft) SO 135 1,4 C 7,8 C 0,0 km/h (0 Bft)
27.11.2014 08:15 1,9 C 98 % 1011,4 hPa 0,0 l/m 0,0 km/h (0 Bft) SO 135 1,6 C 7,8 C 0,0 km/h (0 Bft)
27.11.2014 08:20 1,9 C 98 % 1011,2 hPa 0,0 l/m 0,0 km/h (0 Bft) SO 135 1,6 C 7,8 C 0,0 km/h (0 Bft)
27.11.2014 08:25 1,9 C 98 % 1011,2 hPa 0,0 l/m 0,0 km/h (0 Bft) SO 135 1,6 C 7,8 C 0,0 km/h (0 Bft)
27.11.2014 08:30 2,0 C 98 % 1011,2 hPa 0,0 l/m 0,0 km/h (0 Bft) SO 135 1,7 C 7,8 C 0,0 km/h (0 Bft)
27.11.2014 08:35 2,2 C 98 % 1011,2 hPa 0,0 l/m 0,0 km/h (0 Bft) SO 135 1,9 C 7,8 C 0,0 km/h (0 Bft)
27.11.2014 08:40 2,3 C 98 % 1011,3 hPa 0,0 l/m 0,0 km/h (0 Bft) SO 135 2,0 C 7,8 C 0,0 km/h (0 Bft)
27.11.2014 08:45 2,3 C 98 % 1011,3 hPa 0,0 l/m 0,0 km/h (0 Bft) SO 135 2,0 C 7,8 C 0,0 km/h (0 Bft)
27.11.2014 08:48 2,3 C 98 % 1011,3 hPa 0,0 l/m 0,0 km/h (0 Bft) SO 135 2,0 C 7,8 C 0,0 km/h (0 Bft)
27.11.2014 08:50 2,3 C 98 % 1011,3 hPa 0,0 l/m 0,0 km/h (0 Bft) SO 135 2,0 C 7,8 C 0,0 km/h (0 Bft)
27.11.2014 08:55 2,5 C 98 % 1011,3 hPa 0,0 l/m 0,0 km/h (0 Bft) SO 135 2,2 C 7,8 C 0,0 km/h (0 Bft)
27.11.2014 09:00 2,6 C 98 % 1011,2 hPa 0,0 l/m 0,0 km/h (0 Bft) SO 135 2,3 C 7,8 C 0,0 km/h (0 Bft)
27.11.2014 09:05 2,6 C 98 % 1011,2 hPa 0,0 l/m 0,0 km/h (0 Bft) SO 135 2,3 C 7,8 C 0,0 km/h (0 Bft)
27.11.2014 09:10 2,5 C 98 % 1011,2 hPa 0,0 l/m 0,0 km/h (0 Bft) SO 135 2,2 C 7,8 C 0,0 km/h (0 Bft)
27.11.2014 09:15 2,6 C 98 % 1011,2 hPa 0,0 l/m 0,0 km/h (0 Bft) SO 135 2,3 C 7,8 C 0,0 km/h (0 Bft)
27.11.2014 09:20 2,6 C 98 % 1011,2 hPa 0,0 l/m 0,0 km/h (0 Bft) SO 135 2,3 C 7,8 C 0,0 km/h (0 Bft)
27.11.2014 09:25 2,7 C 98 % 1011,2 hPa 0,0 l/m 0,0 km/h (0 Bft) SO 135 2,4 C 7,8 C 0,0 km/h (0 Bft)
27.11.2014 09:30 2,8 C 98 % 1011,2 hPa 0,0 l/m 0,0 km/h (0 Bft) SO 135 2,5 C 7,8 C 0,0 km/h (0 Bft)
27.11.2014 09:35 2,7 C 98 % 1011,2 hPa 0,0 l/m 0,0 km/h (0 Bft) SO 135 2,4 C 7,8 C 0,0 km/h (0 Bft)
27.11.2014 09:40 2,7 C 98 % 1011,4 hPa 0,0 l/m 0,0 km/h (0 Bft) SO 135 2,4 C 7,8 C 0,0 km/h (0 Bft)
27.11.2014 09:45 2,8 C 98 % 1011,4 hPa 0,0 l/m 0,0 km/h (0 Bft) SO 135 2,5 C 7,8 C 0,0 km/h (0 Bft)
27.11.2014 09:50 2,8 C 98 % 1011,4 hPa 0,0 l/m 0,0 km/h (0 Bft) SO 135 2,5 C 7,8 C 0,0 km/h (0 Bft)
27.11.2014 09:55 2,8 C 98 % 1011,4 hPa 0,0 l/m 0,0 km/h (0 Bft) SO 135 2,5 C 7,8 C 0,0 km/h (0 Bft)
27.11.2014 10:00 2,8 C 98 % 1011,2 hPa 0,0 l/m 0,0 km/h (0 Bft) SO 135 2,5 C 7,8 C 0,0 km/h (0 Bft)
27.11.2014 10:05 2,8 C 98 % 1011,2 hPa 0,0 l/m 0,0 km/h (0 Bft) SO 135 2,5 C 7,8 C 0,0 km/h (0 Bft)
27.11.2014 10:10 2,9 C 98 % 1011,2 hPa 0,0 l/m 0,0 km/h (0 Bft) SO 135 2,6 C 7,8 C 0,0 km/h (0 Bft)
27.11.2014 10:15 2,9 C 98 % 1011,2 hPa 0,0 l/m 0,0 km/h (0 Bft) SO 135 2,6 C 7,8 C 0,0 km/h (0 Bft)
27.11.2014 10:20 3,2 C 97 % 1011,1 hPa 0,0 l/m 0,0 km/h (0 Bft) SO 135 2,8 C 7,8 C 0,0 km/h (0 Bft)
27.11.2014 10:25 3,1 C 97 % 1011,1 hPa 0,0 l/m 0,0 km/h (0 Bft) SO 135 2,7 C 7,8 C 0,0 km/h (0 Bft)
27.11.2014 10:30 2,8 C 98 % 1011,1 hPa 0,0 l/m 0,0 km/h (0 Bft) SO 135 2,5 C 7,8 C 0,0 km/h (0 Bft)
27.11.2014 10:35 2,8 C 98 % 1011,1 hPa 0,0 l/m 0,0 km/h (0 Bft) SO 135 2,5 C 7,8 C 0,0 km/h (0 Bft)
27.11.2014 10:40 2,7 C 98 % 1011,1 hPa 0,0 l/m 0,0 km/h (0 Bft) SO 135 2,4 C 7,8 C 0,0 km/h (0 Bft)
27.11.2014 10:45 2,7 C 98 % 1011,1 hPa 0,0 l/m 0,0 km/h (0 Bft) SO 135 2,4 C 7,8 C 0,0 km/h (0 Bft)
27.11.2014 10:50 2,7 C 98 % 1011,1 hPa 0,0 l/m 0,0 km/h (0 Bft) SO 135 2,4 C 7,8 C 0,0 km/h (0 Bft)
27.11.2014 10:55 2,7 C 98 % 1011,1 hPa 0,0 l/m 0,0 km/h (0 Bft) SO 135 2,4 C 7,8 C 0,0 km/h (0 Bft)
27.11.2014 11:00 2,8 C 98 % 1011,1 hPa 0,0 l/m 0,0 km/h (0 Bft) SO 135 2,5 C 7,8 C 0,0 km/h (0 Bft)
27.11.2014 11:05 2,9 C 98 % 1011,1 hPa 0,0 l/m 0,0 km/h (0 Bft) SO 135 2,6 C 7,8 C 0,0 km/h (0 Bft)
27.11.2014 11:10 3,0 C 97 % 1011,1 hPa 0,0 l/m 0,0 km/h (0 Bft) SO 135 2,6 C 7,8 C 0,0 km/h (0 Bft)
27.11.2014 11:15 2,9 C 98 % 1011,1 hPa 0,0 l/m 0,0 km/h (0 Bft) SO 135 2,6 C 7,8 C 0,0 km/h (0 Bft)
27.11.2014 11:20 2,9 C 98 % 1010,9 hPa 0,0 l/m 0,0 km/h (0 Bft) SO 135 2,6 C 7,8 C 0,0 km/h (0 Bft)
27.11.2014 11:25 3,6 C 97 % 1010,9 hPa 0,0 l/m 0,0 km/h (0 Bft) SO 135 3,2 C 7,8 C 0,0 km/h (0 Bft)
27.11.2014 11:30 3,8 C 97 % 1010,9 hPa 0,0 l/m 0,0 km/h (0 Bft) SO 135 3,4 C 7,8 C 0,0 km/h (0 Bft)
27.11.2014 11:35 3,9 C 97 % 1010,9 hPa 0,0 l/m 0,0 km/h (0 Bft) SO 135 3,5 C 7,8 C 0,0 km/h (0 Bft)
27.11.2014 11:40 4,2 C 97 % 1010,9 hPa 0,0 l/m 0,0 km/h (0 Bft) SO 135 3,8 C 7,8 C 0,0 km/h (0 Bft)
27.11.2014 11:45 4,1 C 97 % 1010,9 hPa 0,0 l/m 0,0 km/h (0 Bft) SO 135 3,7 C 7,8 C 0,0 km/h (0 Bft)
27.11.2014 11:50 3,9 C 97 % 1010,9 hPa 0,0 l/m 0,0 km/h (0 Bft) SO 135 3,5 C 7,8 C 0,0 km/h (0 Bft)
27.11.2014 11:55 4,0 C 97 % 1010,9 hPa 0,0 l/m 0,0 km/h (0 Bft) SO 135 3,6 C 7,8 C 0,0 km/h (0 Bft)
27.11.2014 12:00 4,2 C 97 % 1011,0 hPa 0,0 l/m 0,0 km/h (0 Bft) SO 135 3,8 C 7,8 C 0,0 km/h (0 Bft)
27.11.2014 12:05 4,3 C 97 % 1011,0 hPa 0,0 l/m 0,0 km/h (0 Bft) SO 135 3,9 C 7,8 C 0,0 km/h (0 Bft)
27.11.2014 12:10 4,2 C 97 % 1011,0 hPa 0,0 l/m 0,0 km/h (0 Bft) SO 135 3,8 C 7,8 C 0,0 km/h (0 Bft)
27.11.2014 12:15 4,2 C 97 % 1011,0 hPa 0,0 l/m 0,0 km/h (0 Bft) SO 135 3,8 C 7,8 C 0,0 km/h (0 Bft)
27.11.2014 12:20 4,3 C 97 % 1010,9 hPa 0,0 l/m 0,0 km/h (0 Bft) SO 135 3,9 C 7,8 C 0,0 km/h (0 Bft)
27.11.2014 12:25 4,5 C 97 % 1010,9 hPa 0,0 l/m 0,0 km/h (0 Bft) SO 135 4,1 C 7,8 C 0,0 km/h (0 Bft)
27.11.2014 12:30 4,3 C 97 % 1010,9 hPa 0,0 l/m 0,0 km/h (0 Bft) SO 135 3,9 C 7,8 C 0,0 km/h (0 Bft)
27.11.2014 12:35 4,2 C 97 % 1010,9 hPa 0,0 l/m 0,0 km/h (0 Bft) SO 135 3,8 C 7,8 C 0,0 km/h (0 Bft)
27.11.2014 12:40 3,9 C 97 % 1010,9 hPa 0,0 l/m 0,0 km/h (0 Bft) SO 135 3,5 C 7,8 C 0,0 km/h (0 Bft)
27.11.2014 12:45 4,1 C 97 % 1010,9 hPa 0,0 l/m 0,0 km/h (0 Bft) SO 135 3,7 C 7,8 C 0,0 km/h (0 Bft)
27.11.2014 12:50 3,8 C 97 % 1010,9 hPa 0,0 l/m 0,0 km/h (0 Bft) SO 135 3,4 C 7,8 C 0,0 km/h (0 Bft)
27.11.2014 12:55 3,8 C 97 % 1010,9 hPa 0,0 l/m 0,0 km/h (0 Bft) SO 135 3,4 C 7,8 C 0,0 km/h (0 Bft)
27.11.2014 13:00 3,8 C 97 % 1010,6 hPa 0,0 l/m 0,0 km/h (0 Bft) SO 135 3,4 C 7,8 C 0,0 km/h (0 Bft)
27.11.2014 13:05 4,0 C 96 % 1010,6 hPa 0,0 l/m 0,0 km/h (0 Bft) SO 135 3,4 C 7,8 C 0,0 km/h (0 Bft)
27.11.2014 13:10 3,8 C 97 % 1010,6 hPa 0,0 l/m 0,0 km/h (0 Bft) SO 135 3,4 C 7,8 C 0,0 km/h (0 Bft)
27.11.2014 13:15 3,9 C 97 % 1010,6 hPa 0,0 l/m 0,0 km/h (0 Bft) SO 135 3,5 C 7,8 C 0,0 km/h (0 Bft)
27.11.2014 13:20 4,2 C 96 % 1010,7 hPa 0,0 l/m 0,0 km/h (0 Bft) SO 135 3,6 C 7,8 C 0,0 km/h (0 Bft)
27.11.2014 13:25 3,9 C 97 % 1010,7 hPa 0,0 l/m 0,0 km/h (0 Bft) SO 135 3,5 C 7,8 C 0,0 km/h (0 Bft)
27.11.2014 13:30 3,9 C 97 % 1010,7 hPa 0,0 l/m 0,0 km/h (0 Bft) SO 135 3,5 C 7,8 C 0,0 km/h (0 Bft)
27.11.2014 13:35 3,8 C 96 % 1010,7 hPa 0,0 l/m 0,0 km/h (0 Bft) SO 135 3,2 C 7,8 C 0,0 km/h (0 Bft)
27.11.2014 13:40 3,9 C 96 % 1010,4 hPa 0,0 l/m 0,0 km/h (0 Bft) SO 135 3,3 C 7,8 C 0,0 km/h (0 Bft)
27.11.2014 13:45 3,8 C 97 % 1010,4 hPa 0,0 l/m 0,0 km/h (0 Bft) SO 135 3,4 C 7,8 C 0,0 km/h (0 Bft)
27.11.2014 13:50 3,8 C 97 % 1010,4 hPa 0,0 l/m 0,0 km/h (0 Bft) SO 135 3,4 C 7,8 C 0,0 km/h (0 Bft)
27.11.2014 13:55 3,7 C 96 % 1010,4 hPa 0,0 l/m 0,0 km/h (0 Bft) SO 135 3,1 C 7,8 C 0,0 km/h (0 Bft)
27.11.2014 14:00 3,6 C 96 % 1010,4 hPa 0,0 l/m 0,0 km/h (0 Bft) SO 135 3,0 C 7,8 C 0,0 km/h (0 Bft)
27.11.2014 14:05 3,6 C 96 % 1010,4 hPa 0,0 l/m 0,0 km/h (0 Bft) SO 135 3,0 C 7,8 C 0,0 km/h (0 Bft)
27.11.2014 14:10 3,5 C 96 % 1010,4 hPa 0,0 l/m 0,0 km/h (0 Bft) SO 135 2,9 C 7,8 C 0,0 km/h (0 Bft)
27.11.2014 14:15 3,6 C 96 % 1010,4 hPa 0,0 l/m 0,0 km/h (0 Bft) SO 135 3,0 C 7,8 C 0,0 km/h (0 Bft)
27.11.2014 14:20 3,7 C 96 % 1010,4 hPa 0,0 l/m 0,0 km/h (0 Bft) SO 135 3,1 C 7,8 C 0,0 km/h (0 Bft)
27.11.2014 14:25 4,0 C 96 % 1010,4 hPa 0,0 l/m 0,0 km/h (0 Bft) SO 135 3,4 C 7,8 C 0,0 km/h (0 Bft)
27.11.2014 14:30 4,1 C 96 % 1010,4 hPa 0,0 l/m 0,0 km/h (0 Bft) SO 135 3,5 C 7,8 C 0,0 km/h (0 Bft)
27.11.2014 14:35 4,1 C 96 % 1010,4 hPa 0,0 l/m 0,0 km/h (0 Bft) SO 135 3,5 C 7,8 C 0,0 km/h (0 Bft)
27.11.2014 14:40 4,1 C 96 % 1010,4 hPa 0,0 l/m 0,0 km/h (0 Bft) SO 135 3,5 C 7,8 C 0,0 km/h (0 Bft)
27.11.2014 14:43 4,1 C 96 % 1010,4 hPa 0,0 l/m 0,0 km/h (0 Bft) SO 135 3,5 C 7,8 C 0,0 km/h (0 Bft)
27.11.2014 14:45 4,1 C 96 % 1010,4 hPa 0,0 l/m 0,0 km/h (0 Bft) SO 135 3,5 C 7,8 C 0,0 km/h (0 Bft)
27.11.2014 14:50 4,2 C 96 % 1010,4 hPa 0,0 l/m 0,0 km/h (0 Bft) SO 135 3,6 C 7,8 C 0,0 km/h (0 Bft)
27.11.2014 14:55 4,1 C 96 % 1010,4 hPa 0,0 l/m 0,0 km/h (0 Bft) SO 135 3,5 C 7,8 C 0,0 km/h (0 Bft)
27.11.2014 15:00 4,0 C 96 % 1010,4 hPa 0,0 l/m 0,0 km/h (0 Bft) SO 135 3,4 C 7,8 C 0,0 km/h (0 Bft)
27.11.2014 15:05 4,1 C 96 % 1010,4 hPa 0,0 l/m 0,0 km/h (0 Bft) SO 135 3,5 C 7,8 C 0,0 km/h (0 Bft)
27.11.2014 15:10 4,0 C 96 % 1010,4 hPa 0,0 l/m 0,0 km/h (0 Bft) SO 135 3,4 C 7,8 C 0,0 km/h (0 Bft)
27.11.2014 15:15 3,9 C 96 % 1010,4 hPa 0,0 l/m 0,0 km/h (0 Bft) SO 135 3,3 C 7,8 C 0,0 km/h (0 Bft)
27.11.2014 15:20 3,8 C 96 % 1010,4 hPa 0,0 l/m 0,0 km/h (0 Bft) SO 135 3,2 C 7,8 C 0,0 km/h (0 Bft)
27.11.2014 15:25 3,7 C 96 % 1010,4 hPa 0,0 l/m 0,0 km/h (0 Bft) SO 135 3,1 C 7,8 C 0,0 km/h (0 Bft)
27.11.2014 15:30 3,6 C 96 % 1010,4 hPa 0,0 l/m 0,0 km/h (0 Bft) SO 135 3,0 C 7,8 C 0,0 km/h (0 Bft)
27.11.2014 15:35 3,6 C 96 % 1010,4 hPa 0,0 l/m 0,0 km/h (0 Bft) SO 135 3,0 C 7,8 C 0,0 km/h (0 Bft)
27.11.2014 15:40 3,6 C 96 % 1010,5 hPa 0,0 l/m 0,0 km/h (0 Bft) SO 135 3,0 C 7,8 C 0,0 km/h (0 Bft)
27.11.2014 15:45 3,5 C 96 % 1010,5 hPa 0,0 l/m 0,0 km/h (0 Bft) SO 135 2,9 C 7,8 C 0,0 km/h (0 Bft)
27.11.2014 15:50 3,5 C 96 % 1010,5 hPa 0,0 l/m 0,0 km/h (0 Bft) SO 135 2,9 C 7,8 C 0,0 km/h (0 Bft)
27.11.2014 15:55 3,5 C 96 % 1010,5 hPa 0,0 l/m 0,0 km/h (0 Bft) SO 135 2,9 C 7,8 C 0,0 km/h (0 Bft)
27.11.2014 16:00 3,5 C 96 % 1010,4 hPa 0,0 l/m 0,0 km/h (0 Bft) SO 135 2,9 C 7,8 C 0,0 km/h (0 Bft)
27.11.2014 16:05 3,5 C 96 % 1010,4 hPa 0,0 l/m 0,0 km/h (0 Bft) SO 135 2,9 C 7,8 C 0,0 km/h (0 Bft)
27.11.2014 16:10 3,5 C 96 % 1010,4 hPa 0,0 l/m 0,0 km/h (0 Bft) SO 135 2,9 C 7,8 C 0,0 km/h (0 Bft)
27.11.2014 16:15 3,4 C 96 % 1010,4 hPa 0,0 l/m 0,0 km/h (0 Bft) SO 135 2,8 C 7,8 C 0,0 km/h (0 Bft)
27.11.2014 16:20 3,3 C 96 % 1010,4 hPa 0,0 l/m 0,0 km/h (0 Bft) SO 135 2,7 C 7,8 C 0,0 km/h (0 Bft)
27.11.2014 16:25 3,3 C 96 % 1010,4 hPa 0,0 l/m 0,0 km/h (0 Bft) SO 135 2,7 C 7,8 C 0,0 km/h (0 Bft)
27.11.2014 16:30 3,3 C 96 % 1010,4 hPa 0,0 l/m 0,0 km/h (0 Bft) SO 135 2,7 C 7,8 C 0,0 km/h (0 Bft)
27.11.2014 16:35 3,2 C 96 % 1010,4 hPa 0,0 l/m 0,0 km/h (0 Bft) SO 135 2,6 C 7,8 C 0,0 km/h (0 Bft)
27.11.2014 16:40 3,2 C 96 % 1010,4 hPa 0,0 l/m 0,0 km/h (0 Bft) SO 135 2,6 C 7,8 C 0,0 km/h (0 Bft)
27.11.2014 16:45 3,1 C 96 % 1010,4 hPa 0,0 l/m 0,0 km/h (0 Bft) SO 135 2,5 C 7,8 C 0,0 km/h (0 Bft)
27.11.2014 16:50 3,1 C 96 % 1010,4 hPa 0,0 l/m 0,0 km/h (0 Bft) SO 135 2,5 C 7,8 C 0,0 km/h (0 Bft)
27.11.2014 16:55 3,1 C 96 % 1010,4 hPa 0,0 l/m 0,0 km/h (0 Bft) SO 135 2,5 C 7,8 C 0,0 km/h (0 Bft)
27.11.2014 17:00 3,1 C 96 % 1010,4 hPa 0,0 l/m 0,0 km/h (0 Bft) SO 135 2,5 C 7,8 C 0,0 km/h (0 Bft)
27.11.2014 17:05 3,1 C 96 % 1010,4 hPa 0,0 l/m 0,0 km/h (0 Bft) SO 135 2,5 C 7,8 C 0,0 km/h (0 Bft)
27.11.2014 17:10 3,1 C 96 % 1010,4 hPa 0,0 l/m 0,0 km/h (0 Bft) SO 135 2,5 C 7,8 C 0,0 km/h (0 Bft)
27.11.2014 17:15 3,0 C 96 % 1010,4 hPa 0,0 l/m 0,0 km/h (0 Bft) SO 135 2,4 C 7,8 C 0,0 km/h (0 Bft)
27.11.2014 17:20 3,0 C 96 % 1010,3 hPa 0,0 l/m 0,0 km/h (0 Bft) SO 135 2,4 C 7,8 C 0,0 km/h (0 Bft)
27.11.2014 17:25 3,0 C 96 % 1010,3 hPa 0,0 l/m 0,0 km/h (0 Bft) SO 135 2,4 C 7,8 C 0,0 km/h (0 Bft)
27.11.2014 17:30 3,0 C 96 % 1010,3 hPa 0,0 l/m 0,0 km/h (0 Bft) SO 135 2,4 C 7,8 C 0,0 km/h (0 Bft)
27.11.2014 17:35 2,9 C 97 % 1010,3 hPa 0,0 l/m 0,0 km/h (0 Bft) SO 135 2,5 C 7,8 C 0,0 km/h (0 Bft)
27.11.2014 17:40 2,9 C 97 % 1010,2 hPa 0,0 l/m 0,0 km/h (0 Bft) SO 135 2,5 C 7,8 C 0,0 km/h (0 Bft)
27.11.2014 17:43 2,9 C 97 % 1010,2 hPa 0,0 l/m 0,0 km/h (0 Bft) SO 135 2,5 C 7,8 C 0,0 km/h (0 Bft)
27.11.2014 17:50 2,9 C 97 % 1010,2 hPa 0,0 l/m 0,0 km/h (0 Bft) SO 135 2,5 C 7,8 C 0,0 km/h (0 Bft)
27.11.2014 17:55 2,9 C 97 % 1010,2 hPa 0,0 l/m 0,0 km/h (0 Bft) SO 135 2,5 C 7,8 C 0,0 km/h (0 Bft)
27.11.2014 18:00 2,8 C 97 % 1010,6 hPa 0,0 l/m 0,0 km/h (0 Bft) SO 135 2,4 C 7,8 C 0,0 km/h (0 Bft)
27.11.2014 18:05 2,7 C 97 % 1010,6 hPa 0,0 l/m 0,0 km/h (0 Bft) SO 135 2,3 C 7,8 C 0,0 km/h (0 Bft)
27.11.2014 18:10 2,8 C 97 % 1010,6 hPa 0,0 l/m 0,0 km/h (0 Bft) SO 135 2,4 C 7,8 C 0,0 km/h (0 Bft)
27.11.2014 18:15 2,8 C 97 % 1010,6 hPa 0,0 l/m 0,0 km/h (0 Bft) SO 135 2,4 C 7,8 C 0,0 km/h (0 Bft)
27.11.2014 18:20 2,7 C 97 % 1010,5 hPa 0,0 l/m 0,0 km/h (0 Bft) SO 135 2,3 C 7,8 C 0,0 km/h (0 Bft)
27.11.2014 18:25 2,6 C 97 % 1010,5 hPa 0,0 l/m 0,0 km/h (0 Bft) SO 135 2,2 C 7,8 C 0,0 km/h (0 Bft)
27.11.2014 18:30 2,6 C 97 % 1010,5 hPa 0,0 l/m 0,0 km/h (0 Bft) SO 135 2,2 C 7,8 C 0,0 km/h (0 Bft)
27.11.2014 18:35 2,6 C 97 % 1010,5 hPa 0,0 l/m 0,0 km/h (0 Bft) SO 135 2,2 C 7,8 C 0,0 km/h (0 Bft)
27.11.2014 18:40 2,6 C 97 % 1010,6 hPa 0,0 l/m 0,0 km/h (0 Bft) SO 135 2,2 C 7,8 C 0,0 km/h (0 Bft)
27.11.2014 18:45 2,4 C 97 % 1010,6 hPa 0,0 l/m 0,0 km/h (0 Bft) SO 135 2,0 C 7,8 C 0,0 km/h (0 Bft)
27.11.2014 18:50 2,4 C 97 % 1010,6 hPa 0,0 l/m 0,0 km/h (0 Bft) SO 135 2,0 C 7,8 C 0,0 km/h (0 Bft)
27.11.2014 18:55 2,4 C 97 % 1010,6 hPa 0,0 l/m 0,0 km/h (0 Bft) SO 135 2,0 C 7,8 C 0,0 km/h (0 Bft)
27.11.2014 19:00 2,4 C 97 % 1010,5 hPa 0,0 l/m 0,0 km/h (0 Bft) SO 135 2,0 C 7,8 C 0,0 km/h (0 Bft)
27.11.2014 19:05 2,3 C 97 % 1010,5 hPa 0,0 l/m 0,0 km/h (0 Bft) SO 135 1,9 C 7,8 C 0,0 km/h (0 Bft)
27.11.2014 19:10 2,3 C 97 % 1010,5 hPa 0,0 l/m 0,0 km/h (0 Bft) SO 135 1,9 C 7,8 C 0,0 km/h (0 Bft)
27.11.2014 19:15 2,3 C 97 % 1010,5 hPa 0,0 l/m 0,0 km/h (0 Bft) SO 135 1,9 C 7,8 C 0,0 km/h (0 Bft)
27.11.2014 19:20 2,3 C 97 % 1010,6 hPa 0,0 l/m 0,0 km/h (0 Bft) SO 135 1,9 C 7,8 C 0,0 km/h (0 Bft)
27.11.2014 19:25 2,2 C 97 % 1010,6 hPa 0,0 l/m 0,0 km/h (0 Bft) SO 135 1,8 C 7,8 C 0,0 km/h (0 Bft)
27.11.2014 19:30 2,2 C 97 % 1010,6 hPa 0,0 l/m 0,0 km/h (0 Bft) SO 135 1,8 C 7,8 C 0,0 km/h (0 Bft)
27.11.2014 19:35 2,2 C 97 % 1010,6 hPa 0,0 l/m 0,0 km/h (0 Bft) SO 135 1,8 C 7,8 C 0,0 km/h (0 Bft)
27.11.2014 19:40 2,3 C 97 % 1010,6 hPa 0,0 l/m 0,0 km/h (0 Bft) SO 135 1,9 C 7,8 C 0,0 km/h (0 Bft)
27.11.2014 19:45 2,3 C 97 % 1010,6 hPa 0,0 l/m 0,0 km/h (0 Bft) SO 135 1,9 C 7,8 C 0,0 km/h (0 Bft)
27.11.2014 19:50 2,3 C 97 % 1010,6 hPa 0,0 l/m 0,0 km/h (0 Bft) SO 135 1,9 C 7,8 C 0,0 km/h (0 Bft)
27.11.2014 19:55 2,2 C 97 % 1010,6 hPa 0,0 l/m 0,0 km/h (0 Bft) SO 135 1,8 C 7,8 C 0,0 km/h (0 Bft)
27.11.2014 20:00 2,2 C 97 % 1010,6 hPa 0,0 l/m 0,0 km/h (0 Bft) SO 135 1,8 C 7,8 C 0,0 km/h (0 Bft)
27.11.2014 20:05 2,1 C 97 % 1010,6 hPa 0,0 l/m 0,0 km/h (0 Bft) SO 135 1,7 C 7,8 C 0,0 km/h (0 Bft)
27.11.2014 20:10 2,1 C 97 % 1010,6 hPa 0,0 l/m 0,0 km/h (0 Bft) SO 135 1,7 C 7,8 C 0,0 km/h (0 Bft)
27.11.2014 20:15 2,0 C 97 % 1010,6 hPa 0,0 l/m 0,0 km/h (0 Bft) SO 135 1,6 C 7,8 C 0,0 km/h (0 Bft)
27.11.2014 20:20 2,1 C 97 % 1010,8 hPa 0,0 l/m 0,0 km/h (0 Bft) SO 135 1,7 C 7,8 C 0,0 km/h (0 Bft)
27.11.2014 20:25 2,0 C 97 % 1010,8 hPa 0,0 l/m 0,0 km/h (0 Bft) SO 135 1,6 C 7,8 C 0,0 km/h (0 Bft)
27.11.2014 20:30 2,0 C 97 % 1010,8 hPa 0,0 l/m 0,0 km/h (0 Bft) SO 135 1,6 C 7,8 C 0,0 km/h (0 Bft)
27.11.2014 20:35 2,0 C 97 % 1010,8 hPa 0,0 l/m 0,0 km/h (0 Bft) SO 135 1,6 C 7,8 C 0,0 km/h (0 Bft)
27.11.2014 20:40 2,1 C 97 % 1010,8 hPa 0,0 l/m 0,0 km/h (0 Bft) SO 135 1,7 C 7,8 C 0,0 km/h (0 Bft)
27.11.2014 20:43 2,0 C 97 % 1010,8 hPa 0,0 l/m 0,0 km/h (0 Bft) SO 135 1,6 C 7,8 C 0,0 km/h (0 Bft)
27.11.2014 20:45 2,0 C 97 % 1010,8 hPa 0,0 l/m 0,0 km/h (0 Bft) SO 135 1,6 C 7,8 C 0,0 km/h (0 Bft)
27.11.2014 20:50 2,0 C 97 % 1010,8 hPa 0,0 l/m 0,0 km/h (0 Bft) SO 135 1,6 C 7,8 C 0,0 km/h (0 Bft)
27.11.2014 20:55 1,9 C 98 % 1010,8 hPa 0,0 l/m 0,0 km/h (0 Bft) SO 135 1,6 C 7,8 C 0,0 km/h (0 Bft)
27.11.2014 21:00 1,9 C 98 % 1010,9 hPa 0,0 l/m 0,0 km/h (0 Bft) SO 135 1,6 C 7,8 C 0,0 km/h (0 Bft)
27.11.2014 21:05 1,9 C 98 % 1010,9 hPa 0,0 l/m 0,0 km/h (0 Bft) SO 135 1,6 C 7,8 C 0,0 km/h (0 Bft)
27.11.2014 21:10 1,9 C 98 % 1010,9 hPa 0,0 l/m 0,0 km/h (0 Bft) SO 135 1,6 C 7,8 C 0,0 km/h (0 Bft)
27.11.2014 21:15 1,9 C 98 % 1010,9 hPa 0,0 l/m 0,0 km/h (0 Bft) SO 135 1,6 C 7,8 C 0,0 km/h (0 Bft)
27.11.2014 21:20 1,9 C 98 % 1011,2 hPa 0,0 l/m 0,0 km/h (0 Bft) SO 135 1,6 C 7,8 C 0,0 km/h (0 Bft)
27.11.2014 21:25 1,8 C 98 % 1011,2 hPa 0,0 l/m 0,0 km/h (0 Bft) SO 135 1,5 C 7,8 C 0,0 km/h (0 Bft)
27.11.2014 21:30 1,8 C 98 % 1011,2 hPa 0,0 l/m 0,0 km/h (0 Bft) SO 135 1,5 C 7,8 C 0,0 km/h (0 Bft)
27.11.2014 21:35 1,8 C 98 % 1011,2 hPa 0,0 l/m 0,0 km/h (0 Bft) SO 135 1,5 C 7,8 C 0,0 km/h (0 Bft)
27.11.2014 21:40 1,8 C 98 % 1011,1 hPa 0,0 l/m 0,0 km/h (0 Bft) SO 135 1,5 C 7,8 C 0,0 km/h (0 Bft)
27.11.2014 21:45 1,7 C 98 % 1011,1 hPa 0,0 l/m 0,0 km/h (0 Bft) SO 135 1,4 C 7,8 C 0,0 km/h (0 Bft)
27.11.2014 21:50 1,6 C 98 % 1011,1 hPa 0,0 l/m 0,0 km/h (0 Bft) SO 135 1,3 C 7,8 C 0,0 km/h (0 Bft)
27.11.2014 21:55 1,5 C 98 % 1011,1 hPa 0,0 l/m 0,0 km/h (0 Bft) SO 135 1,2 C 7,8 C 0,0 km/h (0 Bft)
27.11.2014 22:00 1,5 C 98 % 1011,2 hPa 0,0 l/m 0,0 km/h (0 Bft) SO 135 1,2 C 7,8 C 0,0 km/h (0 Bft)
27.11.2014 22:05 1,4 C 98 % 1011,2 hPa 0,0 l/m 0,0 km/h (0 Bft) SO 135 1,1 C 7,8 C 0,0 km/h (0 Bft)
27.11.2014 22:10 1,4 C 98 % 1011,2 hPa 0,0 l/m 0,0 km/h (0 Bft) SO 135 1,1 C 7,8 C 0,0 km/h (0 Bft)
27.11.2014 22:15 1,3 C 98 % 1011,2 hPa 0,0 l/m 0,0 km/h (0 Bft) SO 135 1,0 C 7,8 C 0,0 km/h (0 Bft)
27.11.2014 22:20 1,3 C 98 % 1011,3 hPa 0,0 l/m 0,0 km/h (0 Bft) SO 135 1,0 C 7,8 C 0,0 km/h (0 Bft)
27.11.2014 22:25 1,1 C 98 % 1011,3 hPa 0,0 l/m 0,0 km/h (0 Bft) SO 135 0,8 C 7,8 C 0,0 km/h (0 Bft)
27.11.2014 22:30 1,1 C 98 % 1011,3 hPa 0,0 l/m 0,0 km/h (0 Bft) SO 135 0,8 C 7,8 C 0,0 km/h (0 Bft)
27.11.2014 22:35 1,1 C 98 % 1011,3 hPa 0,0 l/m 0,0 km/h (0 Bft) SO 135 0,8 C 7,8 C 0,0 km/h (0 Bft)
27.11.2014 22:40 1,1 C 98 % 1011,4 hPa 0,0 l/m 0,0 km/h (0 Bft) SO 135 0,8 C 7,8 C 0,0 km/h (0 Bft)
27.11.2014 22:45 1,1 C 98 % 1011,4 hPa 0,0 l/m 0,0 km/h (0 Bft) SO 135 0,8 C 7,8 C 0,0 km/h (0 Bft)
27.11.2014 22:50 1,1 C 98 % 1011,4 hPa 0,0 l/m 0,0 km/h (0 Bft) SO 135 0,8 C 7,8 C 0,0 km/h (0 Bft)
27.11.2014 22:55 1,0 C 98 % 1011,4 hPa 0,0 l/m 0,0 km/h (0 Bft) SO 135 0,7 C 7,8 C 0,0 km/h (0 Bft)
27.11.2014 23:00 1,0 C 98 % 1011,4 hPa 0,0 l/m 0,0 km/h (0 Bft) SO 135 0,7 C 7,8 C 0,0 km/h (0 Bft)
27.11.2014 23:05 0,8 C 98 % 1011,4 hPa 0,0 l/m 0,0 km/h (0 Bft) SO 135 0,5 C 7,8 C 0,0 km/h (0 Bft)
27.11.2014 23:10 0,7 C 98 % 1011,4 hPa 0,0 l/m 0,0 km/h (0 Bft) SO 135 0,4 C 7,8 C 0,0 km/h (0 Bft)
27.11.2014 23:15 0,6 C 98 % 1011,4 hPa 0,0 l/m 0,0 km/h (0 Bft) SO 135 0,3 C 7,8 C 0,0 km/h (0 Bft)
27.11.2014 23:20 0,5 C 98 % 1011,2 hPa 0,0 l/m 0,0 km/h (0 Bft) SO 135 0,2 C 7,8 C 0,0 km/h (0 Bft)
27.11.2014 23:25 0,5 C 98 % 1011,2 hPa 0,0 l/m 0,0 km/h (0 Bft) SO 135 0,2 C 7,8 C 0,0 km/h (0 Bft)
27.11.2014 23:30 0,4 C 98 % 1011,2 hPa 0,0 l/m 0,0 km/h (0 Bft) SO 135 0,1 C 7,8 C 0,0 km/h (0 Bft)
27.11.2014 23:35 0,1 C 98 % 1011,2 hPa 0,0 l/m 0,0 km/h (0 Bft) SO 135 -0,2 C 7,8 C 0,0 km/h (0 Bft)
27.11.2014 23:40 0,0 C 98 % 1011,2 hPa 0,0 l/m 0,0 km/h (0 Bft) SO 135 -0,3 C 7,8 C 0,0 km/h (0 Bft)
27.11.2014 23:43 -0,2 C 98 % 1011,2 hPa 0,0 l/m 0,0 km/h (0 Bft) SO 135 -0,5 C 7,8 C 0,0 km/h (0 Bft)
27.11.2014 23:45 -0,2 C 98 % 1011,2 hPa 0,0 l/m 0,0 km/h (0 Bft) SO 135 -0,5 C 7,8 C 0,0 km/h (0 Bft)
27.11.2014 23:50 -0,5 C 97 % 1011,2 hPa 0,0 l/m 0,0 km/h (0 Bft) SO 135 -0,9 C 7,8 C 0,0 km/h (0 Bft)
27.11.2014 23:55 -0,6 C 98 % 1011,2 hPa 0,0 l/m 0,0 km/h (0 Bft) SO 135 -0,9 C 7,8 C 0,0 km/h (0 Bft)
_ Min-Zeit 23:55 17:30 17:55 - 23:55 - - 23:50 23:55 23:55
Minimum _ -0,6 C 96 % 1010,2 hPa - 0,0 km/h (0 Bft) - - -0,9 C 7,8 C 0,0 km/h (0 Bft)
_ Max-Zeit 12:25 23:55 00:15 23:55 23:55 - - 12:25 23:55 23:55
Maximum _ 4,5 C 98 % 1013,6 hPa 0,0 l/m 0,0 km/h
SO (0 Bft)
- - 4,1 C 7,8 C 0,0 km/h
SO (0 Bft)
Durchschnitt _ 2,4 C 97 % 1011,4 hPa #0,0 l/m 0,0 km/h (0 Bft) - - - 2,1 C 7,8 C 0,0 km/h (0 Bft)